Location: Hilina Pali Trail
(19.2864°N, 155.2806°W)
Time: 20:18:44
(UTC+00:00)

Daily predictions for brighter satellites

Satellite Brightness Start Highest point End
(mag) Time Altitude Azimuth Time Altitude Azimuth Time Altitude Azimuth
SL-16 R/B 4.4 12:33:50 10° NNE 12:37:59 21° ENE 12:41:35 12° ESE
Cosmos 2322 Rocket 3.8 12:46:50 10° N 12:51:45 31° ENE 12:53:39 25° ESE
Atlas Centaur 2 4.2 12:56:51 22° SE 12:56:51 22° SE 12:58:57 10° SE
Resurs 1-4 Rocket 3.3 12:47:23 10° NNE 12:50:49 39° NE 12:50:49 39° NE
Lacrosse 5 3.5 12:56:49 10° N 13:01:17 31° NE 13:05:45 10° ESE
CZ-3 Stage 3 3.6 12:52:55 10° WNW 13:08:53 68° NNE 13:12:16 10° E
Cosmos 2219 3.3 13:22:15 73° E 13:22:15 73° E 13:27:55 10° NNE
Cosmos 2181 Rocket 4.0 13:16:37 10° N 13:22:04 67° NW 13:22:04 67° NW
Delta 198 4.1 13:28:09 67° E 13:28:09 67° E 13:33:12 10° ESE
CZ-4B R/B 3.8 13:24:11 10° NNE 13:29:31 52° ESE 13:31:00 41° SSE
Cosmos 1703 Rocket 4.4 13:25:37 10° N 13:28:51 46° NNE 13:28:51 46° NNE
IRS-1C Rocket 4.0 13:26:23 10° NNE 13:31:40 84° ESE 13:31:41 84° ESE
H-2A ROCKET BODY 3.3 13:31:44 23° NNW 13:31:56 23° NNW 13:34:20 10° NE
CZ-2D R/B 2.9 13:28:06 10° N 13:31:56 40° NW 13:31:56 40° NW
Cosmos 1680 Rocket 4.3 13:28:15 10° N 13:33:17 50° ENE 13:37:39 14° SSE
CZ-2D R/B 4.5 13:32:02 10° N 13:34:42 39° N 13:34:42 39° N
SL-16 R/B 2.4 13:35:26 51° S 13:37:11 83° WSW 13:43:28 10° NNW
Cosmos 1892 4.4 13:39:47 27° ESE 13:40:40 29° E 13:44:05 10° NNE
Cosmos 2074 Rocket 4.1 13:44:47 52° W 13:44:54 52° W 13:50:56 10° N
Cosmos 773 Rocket 4.3 13:41:08 10° NNW 13:45:06 50° NW 13:45:06 50° NW
Cosmos 2184 Rocket 4.1 13:47:19 51° W 13:47:47 52° W 13:53:57 10° N
USA 229 DEB 3.8 13:47:00 48° WSW 13:48:22 56° WNW 13:55:11 10° NNE
USA 229 3.8 13:47:05 49° WSW 13:48:29 57° WNW 13:55:18 10° NNE
ARIANE 5 R/B 4.4 13:45:04 10° NNW 13:46:50 16° NW 13:46:50 16° NW
CZ-4B DEB 4.3 13:43:20 10° NNE 13:48:48 72° ESE 13:50:58 38° S
Cosmos 304 Rocket 4.1 13:46:26 10° N 13:51:13 64° ENE 13:55:59 10° SSE
PAYLOAD B 4.1 13:46:50 10° NNE 13:52:21 86° WNW 13:54:01 47° SSW
Cosmos 1898 Rocket 3.5 13:52:30 56° W 13:52:36 56° WNW 13:57:41 10° N
ATLAS 5 CENTAUR R/B 3.9 13:55:08 13° NW 13:55:08 13° NW 13:56:57 10° NNW
CZ-4B R/B 3.0 13:52:27 10° NNE 13:56:35 75° E 13:57:25 55° SSE
GOES 2 Rocket 3.5 13:59:19 43° NW 14:00:03 48° NNW 14:04:06 10° ENE
GPS 2-14 Rocket1 2.6 14:00:19 77° NNW 14:00:28 79° N 14:04:32 10° E
Okean O Rocket 2.0 13:56:48 10° N 14:00:45 46° WNW 14:00:45 46° WNW
Cosmos 2150 Rocket 4.5 14:01:58 40° W 14:02:12 41° WNW 14:07:10 10° N
GPS 2-17 Rocket1 3.9 14:03:31 36° S 14:03:31 36° S 14:07:19 10° SE
Cosmos 1937 Rocket 3.5 14:02:18 49° SW 14:03:33 65° WNW 14:08:49 10° N
Okean 1-7 2.9 14:00:34 10° N 14:04:55 76° W 14:05:59 50° SSW
CZ-2C R/B 3.5 14:05:28 22° SSE 14:08:19 89° WSW 14:12:48 10° NNW
Meteor 2-3 Rocket 3.9 14:06:59 40° SW 14:08:42 55° W 14:14:22 10° N
NOSS 3-1 (A) 4.3 14:05:10 16° S 14:09:22 41° ESE 14:14:54 10° NE
Lacrosse 5 rocket 3.3 14:06:50 10° N 14:10:58 34° NE 14:15:09 10° ESE
ASTRO E2 3.7 14:12:42 32° S 14:13:24 34° SSE 14:17:03 10° E
GPS 2-18 Rocket1 3.1 14:15:18 54° SW 14:15:38 57° SSW 14:19:34 10° ESE
Centaur D-1AR AC-48 3.0 13:57:08 10° W 14:15:55 80° N 14:20:18 10° E
ADEOS II 3.4 14:12:00 10° NNE 14:16:52 38° E 14:21:42 10° SSE
SL-16 R/B 2.8 14:16:59 10° NW 14:21:58 32° WSW 14:23:13 29° SW
Okean-O 2.5 14:19:51 10° N 14:24:17 87° W 14:27:24 19° SSW
Cosmos 2112 Rocket 4.2 14:22:05 10° NNW 14:27:01 47° W 14:31:59 10° S
Coronas F rocket 1.5 14:29:12 29° S 14:30:22 68° E 14:33:03 10° N
CZ-3C R/B 0.8 14:32:19 36° SW 14:33:20 65° SSE 14:41:26 10° E
Cosmos 2322 Rocket 3.4 14:31:24 10° NW 14:35:17 21° W 14:35:17 21° W
Cosmos 1340 Rocket 2.7 14:34:01 18° SSW 14:37:00 70° W 14:41:02 10° N
PSLV R/B 3.5 14:33:52 10° N 14:38:14 80° WNW 14:42:24 11° SSW
Meteor 2-13 Rocket 4.4 14:34:21 10° S 14:40:25 86° E 14:46:28 10° N
Atlas Centaur 2 3.8 14:39:39 19° SW 14:40:59 20° SW 14:45:30 10° S
Lacrosse 5 2.9 14:40:10 10° WNW 14:43:59 22° WSW 14:47:48 10° SSW
Meteor PRIRODA 3.6 14:40:52 10° N 14:44:38 90° S 14:48:23 10° SSW
DELTA 2 R/B (1) 3.8 14:40:58 20° WSW 14:44:46 59° NW 14:50:18 10° NE
Meteor 1-31 Rocket 3.5 14:46:19 10° NNE 14:50:05 53° E 14:53:51 10° S
FUSE 4.1 14:50:35 14° W 14:55:09 70° NNW 15:00:32 10° ENE
Cosmos 2227 Rocket 2.2 14:51:10 10° SSW 14:56:44 65° WNW 15:02:20 10° N
Okean 2 Rocket 3.6 14:53:39 10° S 14:58:00 62° E 15:02:24 10° NNE
Cosmos 1606 4.4 14:56:05 10° NNE 14:59:35 37° E 15:03:06 10° SSE
Cosmos 1782 Rocket 3.6 14:55:53 10° S 15:00:17 83° E 15:04:39 10° N
Sich 1 Rocket 4.4 14:58:43 10° SW 15:02:34 31° W 15:06:27 10° NNW
GPS 2-04 Rocket1 2.5 15:01:39 13° SW 15:04:37 67° SSE 15:08:08 10° ENE
Cosmos 389 Rocket 3.4 15:03:45 10° NNW 15:07:00 30° W 15:10:15 10° SSW
Cosmos 2360 Rocket 2.7 15:02:25 10° NW 15:07:30 36° WSW 15:12:37 10° S
USA 116 4.5 15:02:57 10° S 15:08:10 76° WSW 15:13:34 10° NNW
ISS -0.1 15:08:25 10° N 15:10:42 18° NE 15:13:00 10° E
CSL-04 Rocket 4.5 15:05:51 10° NNE 15:11:01 53° ESE 15:16:12 10° S
Cosmos 2333 4.5 15:09:14 10° NNW 15:14:53 76° ENE 15:20:35 10° SSE
NOSS 3-1 (C) 4.2 15:10:04 10° WSW 15:15:08 33° WNW 15:20:32 10° N
NOAA 6 4.1 15:10:40 10° N 15:15:51 77° WNW 15:21:01 10° SSW
Ariane Rocket 3.0 15:14:32 10° N 15:19:37 75° WNW 15:24:42 10° SSW
Cosmos 372 Rocket 4.0 15:15:56 10° SSW 15:21:06 80° WNW 15:26:20 10° N
